SCP
1 1 1 1 1 1 1 1 1 1 1 1 1 1 1 1 1 1 1 1 1 1 1 1 1 1 0 0 0 0 0 1 1 1 1 1 1 1 1 0 0 0 0
1 1 1 1 1 1 1 1 1 1 1 1 1 1 1 1 1 1 1 1 1 1 1 1 1 1 1 1 1 0 0 1 1 1 1 1 1 1 1 1 0 0 0
1 2 2 2 2 2 1 1 1 1 1 1 1 1 2 2 2 1 1 1 1 1 1 1 1 1 1 1 1 1 0 1 1 1 1 1 0 0 1 1 1 0 0
2 2 2 2 1 2 2 1 1 1 1 1 2 3 3 3 2 1 1 0 0 0 1 1 1 1 1 1 1 1 1 1 1 1 1 1 0 0 0 1 1 1 0
3 3 2 1 1 2 2 2 1 1 1 2 4 4 4 3 2 1 0 0 0 0 1 1 1 1 1 1 1 1 1 1 1 1 1 1 1 1 0 0 0 1 1
3 3 3 2 2 3 3 2 2 2 2 4 5 5 4 3 1 0 0 0 0 0 1 1 1 1 1 1 1 1 1 1 1 1 1 1 1 1 1 0 0 0 1
3 3 3 3 3 4 4 3 2 2 3 4 5 4 3 2 1 0 0 0 0 0 0 1 0 0 1 1 1 1 1 1 1 1 1 1 1 1 1 1 0 0 0
2 2 3 3 4 5 5 3 3 3 3 3 3 2 1 1 1 0 0 0 0 0 0 0 0 0 1 1 1 1 1 1 1 1 1 1 1 1 1 1 1 0 0
1 2 2 2 3 5 5 4 3 3 3 3 2 1 1 1 1 1 1 1 1 0 0 0 0 0 1 1 1 1 1 1 1 1 1 1 1 1 1 1 1 1 1
1 2 2 2 3 4 4 4 3 3 3 2 2 1 1 1 1 1 1 1 1 1 1 1 1 1 1 1 1 1 1 1 1 1 1 1 1 1 1 1 0 1 1
2 2 3 3 3 4 4 3 3 3 3 2 2 1 1 1 1 1 0 1 1 1 1 1 1 1 1 1 1 1 1 1 1 1 1 1 0 0 0 0 0 0 1
2 3 4 4 4 4 3 3 3 3 2 2 2 2 1 1 1 1 1 1 1 1 1 1 1 1 1 1 1 1 1 1 1 1 1 0 0 0 0 0 0 1 1
2 3 5 5 4 3 3 3 3 3 3 3 3 2 2 2 1 1 1 1 1 1 1 1 2 2 2 2 1 1 1 1 1 1 1 1 0 0 0 0 0 0 1
3 3 4 5 4 3 3 3 3 3 3 4 4 3 2 2 2 2 1 1 2 2 2 2 2 2 2 2 2 2 1 1 1 1 1 1 1 1 0 0 0 0 0
3 3 3 3 3 2 3 3 3 2 3 4 5 4 3 2 2 2 2 2 2 2 3 3 3 3 3 3 2 2 2 2 1 1 1 1 1 1 1 0 0 0 0
2 2 2 3 3 3 3 3 3 2 3 4 5 5 4 3 3 2 2 2 2 2 3 3 3 3 3 3 2 2 2 2 2 2 2 2 2 1 1 0 0 0 0
3 3 3 3 3 4 4 4 3 2 2 3 5 7 7 5 3 3 2 2 2 2 2 2 2 2 2 2 2 2 3 3 3 3 3 3 3 2 1 1 0 0 0
5 4 4 4 4 4 4 3 2 2 2 2 4 7 9 8 5 4 3 3 3 2 2 2 2 2 2 2 1 2 3 4 4 4 4 4 4 3 2 1 1 1 1
6 6 5 5 5 5 3 2 1 1 1 2 3 7 10 10 8 6 4 4 4 3 3 3 2 2 2 1 1 1 2 4 4 4 4 4 4 3 2 2 2 1 1
7 6 6 6 7 6 3 2 1 1 1 1 2 5 7 9 8 7 6 5 5 4 4 4 3 2 2 2 1 1 2 3 3 3 4 4 4 3 2 1 2 2 1
5 5 4 5 5 5 3 2 2 1 1 1 1 2 4 5 6 6 6 5 5 4 5 5 4 4 3 2 1 1 2 2 2 3 3 4 3 2 1 1 1 1 1
2 2 2 2 3 3 2 2 2 1 1 1 1 1 2 3 4 4 5 4 4 4 4 4 4 4 4 3 2 1 1 2 2 3 3 3 2 1 1 0 1 1 1
1 1 1 1 1 2 2 2 2 1 1 1 1 1 2 2 3 3 4 4 5 4 3 3 4 4 4 4 3 2 1 1 1 2 2 1 1 0 0 0 0 0 0
1 1 1 1 1 2 2 2 1 1 1 1 1 1 1 2 2 2 3 4 5 4 4 3 4 4 5 5 4 3 2 2 2 1 1 1 1 0 0 0 0 0 0
1 1 1 1 1 1 1 1 1 1 1 1 1 1 1 1 1 2 2 3 4 4 3 4 4 5 5 4 4 3 3 2 2 2 3 3 2 1 1 0 0 0 0
1 1 1 1 1 1 1 1 1 1 1 1 1 1 1 1 1 2 2 2 3 3 3 4 4 4 4 3 2 2 2 2 2 3 4 4 4 3 1 1 1 0 0
Wind_Speed
3 2 2 2 2 1 1 1 1 1 1 1 1 1 1 1 1 1 2 2 2 2 1 1 1 1 1 0 0 0 1 1 0 1 1 2 1 1 1 1 2 2 3
3 3 2 2 3 2 1 1 1 0 1 1 1 1 0 0 0 1 2 2 2 2 1 1 1 1 1 2 1 1 0 0 1 1 1 2 2 2 1 1 1 2 2
6 5 4 3 3 2 2 2 1 1 0 1 1 1 1 2 2 2 2 2 2 2 1 1 1 1 1 0 1 0 0 0 0 0 1 1 1 2 2 1 1 2 2
6 5 5 4 4 3 2 2 2 1 0 1 2 2 1 0 1 1 1 2 2 2 2 1 1 1 1 1 1 1 0 0 0 0 0 1 2 1 1 2 1 2 3
7 6 6 5 4 3 3 2 2 1 1 1 2 2 1 0 1 1 2 2 2 2 2 1 1 1 1 1 1 1 1 0 0 0 0 1 0 1 1 2 2 2 2
6 6 5 4 3 3 3 3 2 1 1 1 2 2 2 1 1 2 2 2 1 2 2 2 1 1 1 1 1 1 1 1 0 0 0 1 1 1 2 2 2 2 2
6 6 5 6 5 4 4 3 3 2 1 1 1 2 2 1 1 0 1 1 1 1 2 2 2 1 1 1 1 1 1 1 0 0 1 1 1 1 1 2 2 2 2
6 6 6 6 6 6 5 4 4 3 2 2 1 1 1 1 1 1 0 1 1 1 1 1 2 2 2 2 1 1 1 1 1 1 1 0 1 1 1 1 1 1 2
6 6 6 6 6 6 5 5 5 3 3 2 2 1 1 1 1 0 0 0 1 1 1 1 1 2 1 1 1 1 1 1 1 1 1 1 1 1 1 1 1 1 2
4 5 5 5 5 5 5 4 4 4 3 3 2 2 2 1 1 0 0 1 1 1 1 1 2 2 2 1 1 1 1 1 1 1 1 1 1 1 1 1 1 1 2
4 4 4 4 4 4 4 4 4 3 3 3 2 2 1 1 1 1 1 1 1 1 1 1 1 1 2 2 1 1 1 1 1 1 1 2 2 1 1 1 1 1 1
2 2 2 3 4 4 4 4 4 4 3 3 2 2 2 1 1 1 1 1 1 1 1 1 1 1 1 1 1 2 1 1 2 2 1 2 2 2 2 1 2 2 2
2 2 2 3 3 4 4 4 3 3 2 3 2 2 1 2 2 2 1 1 1 1 1 1 1 2 2 2 2 2 2 2 3 3 2 3 2 2 2 2 2 2 2
3 2 2 2 2 2 3 3 2 3 3 3 3 2 3 3 2 2 1 1 1 1 2 2 2 2 2 2 2 2 2 3 3 3 3 3 3 3 3 3 3 2 2
2 2 2 2 2 2 2 3 2 3 3 3 3 3 2 2 2 1 1 1 1 1 1 2 2 3 2 2 2 2 3 3 3 3 3 4 4 4 3 3 3 2 2
3 2 2 2 2 2 3 3 2 2 3 3 3 2 2 2 2 2 1 1 1 1 1 2 2 3 3 4 4 3 3 3 4 4 4 4 4 5 5 5 4 4 4
4 4 4 3 3 3 4 4 3 2 2 2 2 2 2 2 2 2 1 2 2 2 2 2 2 3 4 5 5 4 3 3 4 4 4 4 4 4 4 5 5 5 6
4 3 3 3 2 2 2 2 3 2 2 1 1 1 2 2 2 1 2 2 2 2 2 3 3 3 5 6 5 5 3 3 4 4 4 4 5 4 4 4 4 5 5
3 3 3 3 2 2 3 3 2 2 1 0 1 2 2 3 2 2 3 2 2 2 2 2 3 4 5 6 5 3 3 3 4 4 4 4 5 6 4 3 4 5 5
2 2 3 3 3 2 3 3 2 2 0 1 2 2 2 2 3 3 3 2 2 3 3 3 3 3 4 6 5 4 2 3 4 3 4 5 5 6 4 3 4 5 6
2 2 3 3 2 2 3 3 1 1 2 2 1 1 1 2 2 2 2 1 2 2 2 3 3 3 4 5 5 4 2 3 3 3 3 4 6 6 5 3 4 6 5
2 3 3 2 1 2 3 2 1 2 1 1 1 1 2 2 1 1 1 1 1 2 2 3 4 3 3 3 4 4 4 3 3 3 3 3 5 5 4 3 4 5 3
2 2 3 2 1 1 3 2 2 1 1 1 1 2 2 1 1 1 1 1 1 1 2 2 3 4 3 3 5 5 5 5 3 3 4 4 5 4 4 4 4 3 2
2 2 3 2 1 1 1 2 2 0 0 1 2 2 1 2 1 1 1 1 1 2 2 2 3 3 3 3 3 3 3 4 4 4 4 4 3 3 3 4 3 2 2
2 2 3 2 2 1 1 2 2 1 1 1 2 2 1 1 1 1 2 2 3 3 3 3 3 3 4 5 5 4 3 3 3 2 2 2 2 2 2 2 2 2 2
2 2 2 2 2 2 2 2 2 2 2 1 2 2 1 2 1 1 2 3 4 4 4 5 4 4 5 7 6 6 6 6 3 1 1 2 2 2 3 3 3 2 2
Wind_Direction
216 184 169 153 131 107 104 94 70 62 84 73 70 55 10 351 2 2 6 13 17 27 60 35 21 24 32 349 7 56 20 8 30 57 11 355 346 325 263 236 219 220 219
203 203 185 168 167 180 182 159 182 168 111 117 138 144 166 327 348 350 9 17 25 26 42 44 35 25 23 20 16 54 67 358 50 101 60 352 344 324 294 255 226 228 221
208 209 198 193 183 187 186 187 203 200 186 125 86 67 49 24 18 10 6 3 13 22 24 29 37 30 48 359 343 35 114 245 317 139 142 148 259 307 317 279 250 238 231
207 202 198 197 193 200 176 168 192 192 176 124 120 119 108 79 313 317 339 348 7 9 11 21 38 41 30 353 318 9 291 223 301 294 220 197 187 203 303 315 284 255 244
203 199 198 195 186 180 171 173 174 175 168 140 148 134 116 113 345 357 1 357 360 3 4 18 33 30 5 338 338 1 0 297 254 246 232 216 218 205 217 284 309 299 262
199 196 185 170 168 162 163 168 159 193 183 141 137 143 150 136 49 3 0 354 357 1 4 19 21 11 1 345 339 4 24 7 342 313 186 184 203 212 205 236 277 288 285
189 188 179 172 171 176 179 177 166 193 194 177 161 168 177 167 184 275 337 350 360 356 350 9 15 14 1 2 4 21 2 353 1 279 259 236 242 232 208 213 253 272 288
188 191 189 181 178 184 181 177 180 195 192 191 200 180 175 181 207 213 202 307 306 308 331 359 9 11 13 11 7 2 332 354 340 324 306 284 282 254 226 215 217 268 287
190 194 191 183 179 180 182 185 184 190 195 193 186 176 190 191 202 196 150 298 303 313 349 354 357 353 359 358 7 359 338 345 333 317 313 297 291 289 266 242 226 214 259
197 197 191 186 184 182 180 175 176 189 192 188 187 184 198 202 215 176 262 304 309 330 348 353 347 342 341 341 353 342 332 358 330 305 335 320 300 294 274 252 250 237 230
197 199 192 182 176 167 166 173 176 178 184 183 185 186 196 197 213 225 255 266 288 312 308 305 324 331 341 344 336 314 324 323 317 325 333 306 296 296 287 269 252 243 227
188 179 169 159 166 171 171 177 182 184 189 180 178 189 194 190 211 250 266 264 273 283 279 290 313 313 320 318 307 305 304 276 279 286 290 294 295 290 283 265 259 253 239
150 135 143 161 178 180 177 180 182 184 178 165 173 183 199 206 221 244 266 275 270 284 298 305 296 300 300 298 286 276 278 276 273 268 262 271 273 279 275 265 264 261 257
166 165 172 178 182 175 165 166 173 170 165 166 174 189 213 218 222 230 239 254 257 267 282 287 285 283 283 287 285 285 282 282 284 281 271 263 253 255 255 255 258 257 255
175 175 170 165 157 154 158 164 166 168 167 170 187 211 223 225 222 234 245 250 261 272 269 279 295 295 289 292 293 283 275 276 284 287 281 273 274 265 254 260 252 240 246
188 176 157 147 156 165 167 163 166 169 159 169 204 217 212 220 228 244 255 269 286 291 293 285 291 298 298 309 300 283 271 266 270 280 283 281 275 278 268 265 254 231 230
179 176 175 172 179 182 174 169 171 153 152 175 216 230 218 225 244 254 268 266 267 271 282 287 287 288 294 303 302 289 271 269 271 273 279 285 291 283 280 274 264 251 244
178 182 177 166 175 157 138 125 111 114 134 161 209 237 230 241 248 243 253 261 256 255 264 281 282 287 299 306 299 293 273 278 280 276 273 276 290 291 285 279 275 267 262
182 181 174 159 142 128 125 118 111 106 94 78 268 258 239 242 249 250 257 252 251 263 267 277 281 288 299 309 304 295 278 284 288 288 291 287 290 297 294 275 276 281 281
159 155 143 127 126 130 123 117 121 108 173 255 260 257 240 238 250 255 257 259 252 263 277 287 284 285 294 309 309 295 278 291 297 302 303 296 295 299 291 267 269 278 284
145 131 133 134 151 142 124 120 122 210 249 260 268 275 263 250 248 260 269 283 277 283 289 291 294 291 291 305 308 298 268 273 287 298 304 304 303 297 290 269 265 271 281
135 137 134 134 132 127 124 126 226 257 273 293 296 294 289 277 270 280 312 321 299 297 298 301 305 305 305 308 309 299 277 277 263 278 285 296 309 305 306 300 304 299 295
161 139 136 134 128 129 139 181 245 291 356 360 319 307 316 318 316 279 287 305 294 275 290 298 301 307 313 311 310 305 291 284 267 279 293 304 314 312 313 319 327 328 318
165 144 138 153 199 221 189 206 228 198 82 309 299 303 314 317 321 310 279 265 273 273 281 287 292 299 306 309 318 315 302 288 282 289 300 302 316 321 318 328 330 324 314
173 163 161 187 227 252 255 231 215 171 191 274 291 301 297 287 303 301 275 254 252 237 238 257 266 284 293 290 293 300 300 296 287 301 314 326 335 337 329 324 324 326 329
174 163 169 194 226 234 245 252 227 185 185 251 282 284 290 291 278 279 305 294 264 271 256 256 258 266 268 291 304 303 298 297 296 291 287 286 294 294 297 302 308 311 307